Погода Форт-Шевченко

Погода Форт-Шевченко : погода сейчас, прогноз погоды и архив. Всё, что Вы хотите узнать о погоде Форт-Шевченко!

Хотите узнать прогноз погоды Форт-Шевченко? Тогда Вам сюда: Погода Форт-Шевченко

Поиск расширенной информации на нашем сайте:

Другие новости

Новости СМИ2

Главная страница сайта

Новости сайта

02.10.2013

Напоминаем, что на нашем новом сайте вы можете получить высокодетализированные прогнозы погоды по пунктам России, СНГ и мира (включающие важные для авиации метеовеличины, такие как направление и скорость ветра, видимость, явления погоды, количество и форма облачности, нижняя и верхняя граница облачности), а также ознакомиться с разнообразными материалами по авиационной метеорологии и подборкой полезных ссылок на эту тему.

Сайт Метеоцентр.Азия посвящён разработке технологий оптимизации авиаметеорологического обслуживания, включая проектирование и перспективное создание нескольких автоматизированных авиаметеорологических систем:
- система выпуска высокодетальных прогностических карт явлений погоды для нижнего воздушного пространства по России и ближнему зарубежью;
- система верификации прогнозов TAF (выпускаемых синоптиками официальных АМСГ РФ и ближнего зарубежья) и AUTOTAF (выпускаемых сайтом Метеоцентр.Азия) - выявление ошибок, онлайн-сопоставление с фактической погодой METAR, автоматическое внесение коррективов в прогнозы при резком отклонении фактической погоды от прогноза, подсчёт оправдываемости прогнозов по элементам и в целом;
- система обработки, анализа и отображения авиаметеорологической информации для применения провайдерами метеорологической информации.

Рекомендуем: Самая подробная информация Производство косметики в Москве здесь.

Погода Форт-Шевченко - сегодня

Время (UTC), дата Ветер
(°,м/с) 
Видим.   Явления Облачность Т
(°С)
Тd
(°С)
f(%) Тe
(°С)
Pmin
(гПа)
dP
(гПа)
Po
(мм)
O2
(г/м3)
Тmin Tmax R s Состояние
почвы
03 25.06.17 160 (Ю) 10 км    5/0 средняя 
[Ac trans]
+21.5 +17.1 76 +34  1010.6  760  280           
06 25.06.17 190 (Ю) 10 км    4/0 верхняя 
[Ci sp]
+23.9 +19.2 75 +40  1010.8  0.1  760  277  +19.6         
09 25.06.17 320 (СЗ) 10 км    6/0 верхняя 
[Ci sp]
+25.7 +20 71 +44  1011.7  0.9  761  275           
12 25.06.17 310 (СЗ) 10 км    6/0 верхняя 
[Ci sp]
+25.8 +19.5 68 +43  1011.6  -0.1  761  275           
15 25.06.17 330 (СЗ) 10 км    8/0 средняя 
[Ac trans]
+24.1 +18.7 72 +39  1012.5  0.9  761  278    +26.2       
18 25.06.17 010 (С) 10 км    9/0 средняя 
[Ac trans]
+22.3 +17.8 76 +36  1014.3  1.8  763  280    +26.2       
21 25.06.17 340 (С) 10 км    9/0 средняя 
[Ac trans]
+21.2 +17.1 77 +33  1015.8  1.6  764  282           
00 26.06.17 350 (С) 10 км    8/0 средняя 
[Ac trans]
+20.4 +15.1 72 +29  1016.2  0.4  764  283           
03 26.06.17 020 (С) 10 км    6/0 средняя 
[Ac trans]
+21.5 +13.9 62 +28  1017.1  0.9  765  283           
06 26.06.17 350 (С) 10 км    1/0 средняя 
[Ac trans]
+24.7 +10.7 41 +26  1018.3  1.1  766  281  +20         
09 26.06.17 330 (СЗ) 10 км    1/0 средняя 
[Ac trans]
+25.3 +12.9 46 +30  1018.8  0.5  766  280           
12 26.06.17 020 (С) 10 км    ясно 
+25.8 +9.9 37 +26  1018.2  -0.6  766  280           
15 26.06.17 010 (С) 10 км    ясно 
+25.3 +10.9 40 +27  1018.2  766  280    +26       
18 26.06.17 020 (С) 10 км    ясно 
+23.6 +11.8 48 +27  1018.3  0.1  766  282    +26       
21 26.06.17 350 (С) 10 км    ясно 
+22.8 +13.9 57 +29  1017.7  -0.6  765  282           
00 27.06.17 080 (В) 10 км    ясно 
+21.8 +12.9 57 +27  1016.7  -0.9  765  283           
03 27.06.17 100 (В) 10 км    ясно 
+23.3 +11 46 +25  1016.7  -0.1  765  282           
06 27.06.17 160 (Ю) 10 км    ясно 
+29.7 +5.1 21 +30  1016.9  0.2  765  277  +21.6         
09 27.06.17 190 (Ю) 10 км    ясно 
+26.2 +14.1 47 +33  1016.1  -0.8  764  278           
12 27.06.17 200 (Ю) 10 км    ясно 
+25.6 +16.2 56 +36  1014.7  -1.4  763  278           
15 27.06.17 220 (ЮЗ) 10 км    ясно 
+25.2 +16 57 +35  1014  -0.7  763  278    +29.8       
18 27.06.17 100 (В) 10 км    ясно 
+25.2 +11.4 42 +28  1013.4  -0.6  762  279    +29.8       
21 27.06.17 040 (СВ) 10 км    ясно 
+25 +9.5 37 +25  1012.9  -0.5  762  280           
00 28.06.17 120 (ЮВ) 10 км    ясно 
+26.2 +6.8 29 +26  1012.4  -0.5  761  279           
03 28.06.17 150 (ЮВ) 10 км    6/0 средняя 
[Ac trans]
+27.6 +11.9 38 +31  1012.3  -0.1  761  276           
Время (UTC), дата Ветер
(°,м/с) 
Видим.   Явления Облачность Т
(°С)
Тd
(°С)
f(%) Тe
(°С)
Pmin
(гПа)
dP
(гПа)
Po
(мм)
O2
(г/м3)
Тmin Tmax R s Состояние
почвы

Для получения пояснительной информации подведите курсор к названию столбца.

ПОГОДА Форт-Шевченко - архив

Всё, что Вы хотите узнать о погоде Форт-Шевченко - удобно и подробно!

Выберите нужную дату (начиная с 1 января 2015* года) и нажмите кнопку "Найти".
Будут отображены архивные сводки погоды по пункту Форт-Шевченко, начиная с указанной даты.


Отображать данные в формате CSV (для использования в таблицах Excel)


Внимание! Наш архив погоды предназначен исключительно для личного некоммерческого использования в познавательных целях. Если Вам необходимы официальные справки о состоянии погоды (для производственных, юридических, коммерческих и т.п. целей), обращайтесь в органы Росгидромета.

*Примечание: данная дата относится к архиву по метеостанциям СССР (Россия, СНГ, Балтия).
Архив по метеостанциям Зарубежной Европы и Азии (кроме Китая) хранится 10 дней, по другим регионам земного шара (Китай, Африка, Америка, Австралия, Океания) - 1 день.

Форт-Шевченко - район местоположения метеостанции


Название, широта, долгота, высота метеостанции:
Форт-Шевченко 44.6°ш. 50.2°д. -25 м над ур. моря [Казахстан]

Дополнительная информация

В oтличие oт бoльшинства пoгoдных сайтoв мы публикуем пoдрoбную метеoинфoрмацию в детальнoм прoфессиoнальнoм фoрмате.

Характеристики температуры и влажнoсти вoздуха измеряются на высoте 2 м в тени вдали oт зданий и деревьев.
Скoрoсть ветра измеряется на высoте 10 м (на урoвне рoста челoвека скoрoсть ветра ниже в 1.5-2 раза). Если метеoстанция нахoдится в гoрoде или в лесу, тo скoрoсть ветра занижена на 2-4 м/с пo сравнению с oткрытым местoм. Скoрoсть ветра над акватoриями крупных рек и oзёр, а также на вершинах хoлмoв на 2-5 м/с выше, чем в oбычных услoвиях.
Атмoсфернoе давление в разных тoчках местнoсти мoжет значительнo oтличаться oт давления на метеoстанции, в зависимoсти oт услoвий рельефа (при пoдъёме на 10 м давление пoнижается примернo на 1 мм рт.ст.).